Temp
68 68 69 68 68 67 68 75 74 76 76 76 75 75 74 73 74 73 74 73 72 70 68 69 69 70 75 73 75 74 72 74 74 75 76 76 76 76 76 76 76 76 76 76 76 75 75 75 76 76 76 76 76 70 69 69 72 72 70 71 71 70
67 67 67 68 70 70 69 72 68 68 69 71 72 74 70 69 72 66 71 68 67 70 69 68 68 74 71 72 72 74 74 74 74 74 75 75 76 76 76 76 76 76 76 76 75 69 70 73 75 76 76 76 72 68 68 69 71 72 71 70 71 72
67 67 67 67 69 69 68 66 67 68 70 73 72 72 67 67 64 66 66 66 68 67 68 69 70 72 72 73 72 73 74 74 75 74 74 75 75 75 76 76 76 76 75 75 69 67 68 68 68 74 75 72 69 69 68 69 69 71 71 71 70 75
66 66 66 66 68 66 66 66 67 67 66 68 66 67 65 66 65 65 64 65 66 65 68 67 73 74 73 70 69 72 74 74 74 74 75 72 74 74 75 75 75 75 73 70 67 67 67 66 67 68 69 69 69 68 68 68 69 70 70 73 71 76
65 65 65 65 66 66 66 65 66 65 65 65 66 65 64 64 66 65 64 66 65 67 67 68 68 68 67 68 67 67 68 68 68 68 73 68 69 71 70 70 69 70 68 68 67 66 66 67 68 69 69 69 69 68 68 69 70 70 70 71 72 76
64 64 64 63 64 68 66 64 65 67 66 65 66 65 65 64 65 66 66 67 69 67 67 66 66 66 66 66 66 66 66 67 67 67 69 67 68 69 68 68 69 69 68 67 68 67 67 68 68 68 68 68 69 68 67 67 68 71 71 70 73 76
64 63 64 64 64 64 63 64 64 68 67 66 65 65 65 65 65 64 65 67 67 66 66 66 66 65 65 65 65 66 66 66 66 66 68 67 68 68 67 68 68 68 67 67 67 66 66 66 66 67 67 68 68 68 68 68 68 70 71 71 73 76
64 64 63 63 64 63 63 65 66 66 65 68 67 65 64 66 67 66 68 67 70 66 66 66 66 65 66 65 65 65 65 66 67 67 68 68 67 67 67 68 68 67 68 67 67 66 66 66 66 67 67 66 68 68 68 68 68 68 70 70 72 75
63 63 63 62 63 62 63 64 64 64 63 70 65 65 65 66 66 67 67 67 69 64 65 64 63 64 64 64 65 65 65 65 66 67 67 67 67 66 66 67 67 67 65 65 66 65 67 67 66 66 67 68 68 68 68 68 68 69 69 69 71 74
62 64 62 62 63 62 62 62 63 63 64 67 64 65 65 64 65 66 65 66 68 66 65 65 64 65 65 64 65 65 65 65 66 67 67 65 67 67 66 66 67 67 66 65 65 66 67 66 66 67 67 68 68 68 68 68 68 69 69 70 70 73
62 65 62 62 63 62 63 62 63 62 63 64 64 65 65 65 65 66 66 66 66 68 66 65 64 64 64 64 64 66 66 66 66 67 67 66 67 67 67 67 67 66 65 65 66 67 67 66 66 67 68 68 68 67 68 68 68 69 69 69 69 71
62 63 63 62 63 62 63 62 63 62 62 64 65 64 64 65 66 65 66 66 67 66 68 65 65 64 65 64 64 65 66 65 65 66 67 67 67 67 66 67 68 67 66 66 66 66 67 66 66 66 67 68 68 67 67 67 68 69 69 68 69 70
61 61 60 61 61 61 62 62 62 61 64 64 63 64 64 64 65 65 65 66 66 67 67 66 65 65 66 64 65 65 65 67 67 66 67 67 67 67 67 67 67 67 66 66 66 66 67 66 66 66 66 67 67 67 67 67 68 68 68 69 69 69
64 61 64 60 63 60 62 62 64 61 63 62 63 61 63 63 65 65 65 65 65 66 65 65 65 65 64 64 65 65 66 67 68 67 68 68 66 66 66 66 66 66 68 66 66 65 65 65 65 65 66 66 66 66 66 67 67 68 69 70 69 69
65 61 61 61 60 61 62 61 60 62 62 61 63 62 61 63 64 65 65 63 65 66 65 65 65 64 64 64 64 65 65 66 68 68 67 67 66 66 65 65 66 65 64 64 65 66 65 65 65 65 65 67 67 68 66 66 67 68 70 70 69 69
61 60 60 61 59 59 60 60 60 65 62 61 62 62 62 62 63 62 63 63 64 66 65 64 65 64 63 63 63 65 65 66 67 67 67 67 67 66 65 65 65 64 62 63 65 64 65 65 65 65 66 65 65 67 67 66 66 69 70 70 69 68
61 60 60 60 59 59 60 60 60 60 61 60 60 61 61 62 62 62 62 63 63 65 64 64 64 64 63 63 64 64 64 65 66 66 66 66 65 65 65 65 64 65 64 63 64 63 63 64 64 64 65 65 65 67 66 66 66 67 72 69 69 69
60 60 59 60 60 59 59 59 59 59 61 60 60 60 61 62 62 61 62 62 62 63 64 63 63 63 62 65 64 63 64 64 65 65 65 65 65 65 65 64 63 64 64 63 63 63 63 64 65 64 63 64 65 65 65 66 67 68 67 69 68 69
61 59 59 58 60 59 58 59 58 59 58 60 59 60 59 61 60 61 60 61 62 62 63 62 63 63 62 63 63 63 63 64 65 64 64 64 65 65 65 64 63 63 64 64 63 63 63 64 64 64 64 64 65 64 65 66 67 66 66 68 68 69
61 59 60 58 56 57 56 58 56 58 58 58 58 60 60 58 59 59 61 61 61 61 61 62 62 62 61 63 62 62 62 64 64 64 64 64 64 64 64 63 63 63 62 63 64 64 64 64 64 64 64 64 64 64 64 66 65 65 66 67 67 69
61 60 59 58 57 58 57 56 52 54 54 54 59 60 59 58 58 59 59 59 60 60 59 60 62 61 61 63 62 61 61 62 63 64 63 63 64 65 65 64 63 63 63 62 62 63 64 63 62 62 61 61 62 63 65 66 64 65 66 66 67 68
59 59 59 59 58 58 56 58 57 56 55 54 55 56 57 59 60 60 58 58 59 58 59 59 61 60 61 60 60 61 61 61 62 63 63 63 64 65 64 63 63 62 64 63 62 62 63 64 61 60 59 58 58 60 63 64 64 65 66 67 67 67
58 58 60 61 60 60 57 58 58 57 56 56 57 57 57 58 58 58 58 57 59 58 58 59 59 61 61 60 59 60 61 61 62 64 61 62 61 62 62 63 63 63 62 62 62 63 62 63 61 61 60 59 55 56 58 60 62 63 65 66 66 67
60 59 59 61 63 59 59 61 58 57 56 57 59 59 56 56 56 57 59 59 59 58 59 59 59 59 60 59 59 60 60 61 61 62 61 60 60 61 62 62 62 63 63 61 62 62 63 63 62 61 57 56 56 55 54 56 58 60 63 65 66 66
61 60 59 63 61 59 59 56 56 57 55 53 54 52 53 52 55 57 59 57 59 59 60 60 60 59 60 61 59 60 60 61 61 61 62 60 60 61 61 62 62 62 62 61 61 61 62 63 62 63 61 58 55 53 54 55 57 57 60 62 64 66
60 60 60 60 59 59 61 59 55 54 53 51 51 50 52 54 54 55 55 57 58 59 59 59 59 60 60 61 60 60 61 61 61 61 63 61 61 61 62 62 62 62 62 62 61 61 60 63 62 63 63 62 59 56 56 57 58 55 57 61 61 64
61 61 61 60 59 61 58 57 57 55 54 52 53 50 50 52 54 55 55 56 57 58 59 59 60 59 60 61 61 60 60 60 61 61 64 61 61 61 62 63 64 62 62 62 62 60 60 59 61 61 62 62 63 64 63 59 56 54 55 56 59 61
62 63 61 61 59 59 58 57 57 55 57 53 51 54 54 53 54 56 55 57 57 58 60 60 59 61 62 61 62 61 60 60 60 61 65 62 61 62 62 63 64 62 61 62 61 61 61 61 59 58 62 62 62 63 63 62 61 59 56 55 55 58
62 62 61 60 61 59 60 57 56 56 55 54 53 55 55 55 55 53 53 55 56 58 59 60 60 61 62 62 62 61 59 59 59 60 64 61 61 61 61 61 61 61 60 60 60 61 62 61 60 59 59 59 60 61 62 63 63 63 58 54 55 55
61 61 62 61 61 59 59 59 56 55 57 53 53 54 52 52 52 51 52 53 54 55 57 58 60 60 60 60 60 60 59 60 59 60 64 60 60 60 61 61 60 60 61 60 60 62 61 60 61 60 60 59 57 57 58 60 61 62 62 61 58 54
61 61 62 61 60 60 58 58 56 56 55 56 54 53 52 53 52 51 52 53 54 55 56 58 59 60 59 60 60 61 60 59 61 61 61 59 59 59 60 60 61 60 60 60 60 60 60 60 61 61 62 61 60 59 59 59 61 61 61 60 60 60
60 61 61 61 60 60 59 57 57 56 55 55 54 54 52 52 52 52 52 52 53 54 56 57 57 57 59 59 60 60 60 59 60 59 59 59 59 60 61 60 59 59 60 60 60 62 59 60 60 61 61 61 61 62 61 61 62 62 61 61 61 60
61 60 61 61 60 60 58 58 58 56 56 56 55 53 52 51 51 52 51 52 53 54 56 56 56 57 58 58 60 60 60 59 60 59 60 58 59 60 59 59 59 59 58 59 59 59 59 59 60 60 60 61 61 61 61 61 61 61 61 61 61 60
62 60 60 60 61 59 59 59 58 58 56 56 56 53 52 53 53 52 53 53 55 55 55 55 55 56 58 59 59 59 59 60 59 58 60 59 59 60 60 59 59 58 59 59 59 59 60 60 60 61 61 61 61 62 62 62 61 61 61 61 60 60
60 59 59 60 60 59 59 58 58 58 57 56 56 54 54 55 54 53 53 53 55 54 55 56 55 58 60 59 59 59 60 59 58 58 58 58 60 59 58 59 59 59 59 60 59 60 59 59 61 61 60 61 61 61 61 62 62 62 62 62 62 61
59 59 59 60 59 60 60 59 58 58 58 58 60 57 56 57 55 53 53 55 54 55 56 57 58 60 61 61 60 60 59 57 57 58 58 58 58 59 58 58 57 57 58 62 60 59 59 59 60 60 60 61 61 61 62 62 62 62 63 63 62 62
59 59 59 60 60 60 59 58 58 59 57 57 55 56 54 54 54 54 54 53 54 55 58 61 61 62 62 63 62 62 58 56 56 57 57 57 58 58 58 57 57 57 58 59 59 59 59 59 59 60 60 61 60 61 61 62 62 62 63 63 63 63
MSLP
1018.39 1018.31 1018.19 1018.19 1018.23 1018.19 1018.07 1017.91 1017.87 1017.79 1017.75 1017.59 1017.51 1017.55 1017.63 1017.67 1017.59 1017.59 1017.47 1017.39 1017.47 1017.51 1017.43 1017.31 1017.23 1017.23 1017.19 1017.23 1017.27 1017.31 1017.51 1017.43 1017.35 1017.19 1017.11 1017.07 1017.03 1017.07 1017.03 1016.99 1017.03 1017.03 1017.11 1017.11 1017.07 1017.11 1017.15 1017.23 1017.27 1017.27 1017.31 1017.47 1017.43 1017.63 1017.71 1017.71 1017.47 1017.51 1017.59 1017.55 1017.59 1017.71
1018.51 1018.35 1018.19 1018.07 1017.99 1018.03 1017.99 1017.95 1017.91 1017.91 1017.91 1017.75 1017.67 1017.59 1017.75 1017.79 1017.75 1017.83 1017.79 1017.63 1017.59 1017.59 1017.63 1017.51 1017.35 1017.23 1017.27 1017.35 1017.43 1017.47 1017.39 1017.35 1017.35 1017.31 1017.23 1017.11 1017.03 1017.03 1016.99 1016.99 1016.95 1016.99 1017.03 1017.07 1017.11 1017.15 1017.19 1017.27 1017.31 1017.31 1017.39 1017.47 1017.63 1018.11 1018.39 1018.19 1017.63 1017.67 1017.71 1017.71 1017.71 1017.75
1018.59 1018.43 1018.39 1018.35 1018.27 1018.23 1018.15 1018.03 1017.95 1017.91 1017.91 1017.79 1017.79 1017.79 1017.79 1017.87 1017.91 1017.87 1017.87 1017.79 1017.71 1017.71 1017.71 1017.67 1017.51 1017.47 1017.39 1017.43 1017.43 1017.51 1017.39 1017.31 1017.31 1017.27 1017.23 1017.15 1017.11 1017.07 1017.03 1016.95 1016.87 1016.91 1016.99 1017.03 1017.11 1017.15 1017.19 1017.27 1017.39 1017.39 1017.47 1017.59 1017.79 1017.83 1017.87 1018.03 1017.91 1017.79 1017.75 1017.71 1017.79 1017.75
1018.87 1018.75 1018.71 1018.63 1018.51 1018.47 1018.43 1018.23 1018.11 1018.07 1018.03 1017.95 1017.91 1017.95 1017.95 1017.87 1017.95 1017.91 1017.95 1017.83 1017.83 1017.83 1017.75 1017.71 1017.59 1017.63 1017.55 1017.51 1017.51 1017.55 1017.51 1017.39 1017.27 1017.27 1017.27 1017.27 1017.19 1017.19 1017.07 1016.91 1016.87 1016.91 1017.03 1017.15 1017.19 1017.19 1017.15 1017.23 1017.35 1017.47 1017.63 1017.71 1017.87 1017.91 1017.95 1018.31 1018.19 1017.99 1017.83 1017.79 1017.87 1017.83
1019.03 1018.91 1018.87 1018.83 1018.79 1018.75 1018.63 1018.47 1018.35 1018.23 1018.27 1018.15 1018.07 1018.03 1018.11 1018.15 1017.95 1017.99 1017.95 1017.87 1017.83 1017.79 1017.75 1017.67 1017.63 1017.63 1017.59 1017.55 1017.55 1017.63 1017.63 1017.59 1017.47 1017.43 1017.35 1017.51 1017.47 1017.35 1017.11 1017.03 1017.07 1017.15 1017.23 1017.27 1017.35 1017.35 1017.31 1017.35 1017.35 1017.47 1017.63 1017.75 1017.99 1018.35 1018.11 1018.43 1018.19 1018.11 1017.95 1017.87 1017.91 1017.91
1019.23 1019.15 1019.11 1019.07 1019.03 1018.87 1018.75 1018.75 1018.63 1018.39 1018.35 1018.27 1018.23 1018.11 1018.07 1018.15 1018.15 1017.95 1017.91 1017.87 1017.83 1017.83 1017.79 1017.75 1017.63 1017.63 1017.63 1017.63 1017.67 1017.67 1017.63 1017.51 1017.55 1017.55 1017.47 1017.59 1017.55 1017.35 1017.27 1017.31 1017.35 1017.35 1017.31 1017.27 1017.39 1017.39 1017.31 1017.31 1017.47 1017.55 1017.71 1017.91 1018.39 1018.95 1018.99 1019.03 1018.51 1018.27 1018.03 1017.99 1017.95 1017.99
1019.39 1019.31 1019.23 1019.15 1019.07 1019.03 1019.03 1018.91 1018.75 1018.47 1018.39 1018.39 1018.31 1018.31 1018.23 1018.03 1018.07 1018.07 1018.03 1017.95 1017.99 1018.07 1018.07 1017.87 1017.83 1017.75 1017.71 1017.63 1017.67 1017.63 1017.59 1017.51 1017.59 1017.55 1017.43 1017.55 1017.59 1017.43 1017.35 1017.43 1017.43 1017.39 1017.31 1017.35 1017.35 1017.19 1017.11 1017.07 1017.15 1017.39 1017.59 1017.75 1017.95 1018.07 1018.27 1018.91 1018.99 1018.79 1018.11 1018.03 1017.99 1017.99
1019.51 1019.39 1019.35 1019.23 1019.19 1019.19 1019.11 1018.99 1018.83 1018.63 1018.55 1018.39 1018.39 1018.43 1018.31 1018.11 1018.03 1018.07 1017.99 1017.95 1017.95 1018.11 1018.07 1018.03 1017.95 1017.91 1017.83 1017.63 1017.63 1017.55 1017.55 1017.55 1017.51 1017.51 1017.43 1017.43 1017.55 1017.47 1017.47 1017.39 1017.35 1017.31 1017.39 1017.31 1017.15 1016.99 1016.83 1016.87 1016.91 1017.03 1017.27 1017.59 1017.71 1017.43 1017.51 1017.75 1018.27 1018.75 1018.47 1017.99 1017.99 1018.03
1019.67 1019.59 1019.47 1019.39 1019.35 1019.27 1019.15 1019.07 1018.95 1018.87 1018.79 1018.55 1018.55 1018.47 1018.35 1018.11 1017.99 1017.87 1017.91 1017.99 1017.91 1018.03 1018.03 1018.07 1018.07 1017.95 1017.79 1017.71 1017.59 1017.55 1017.55 1017.55 1017.39 1017.35 1017.31 1017.43 1017.47 1017.51 1017.51 1017.39 1017.27 1017.35 1017.35 1017.23 1017.07 1016.95 1016.91 1016.91 1016.99 1017.19 1017.39 1017.51 1017.63 1017.79 1017.67 1017.71 1018.07 1018.47 1018.67 1018.07 1018.03 1018.03
1019.91 1019.75 1019.67 1019.55 1019.51 1019.43 1019.39 1019.31 1019.15 1019.07 1018.95 1018.71 1018.67 1018.51 1018.35 1018.31 1018.15 1017.99 1017.95 1017.91 1017.91 1017.99 1018.03 1018.03 1017.99 1017.87 1017.83 1017.75 1017.63 1017.55 1017.55 1017.55 1017.47 1017.23 1017.31 1017.51 1017.43 1017.47 1017.47 1017.35 1017.35 1017.39 1017.35 1017.19 1017.03 1016.91 1016.87 1016.95 1017.03 1016.95 1016.95 1017.19 1017.39 1017.67 1017.71 1017.75 1017.71 1018.15 1018.71 1018.19 1018.07 1018.07
1019.99 1019.83 1019.75 1019.71 1019.59 1019.55 1019.43 1019.39 1019.27 1019.15 1019.03 1018.91 1018.79 1018.59 1018.51 1018.43 1018.35 1018.19 1018.07 1017.99 1017.95 1017.91 1017.95 1017.99 1017.99 1017.95 1017.87 1017.79 1017.67 1017.59 1017.55 1017.47 1017.47 1017.31 1017.35 1017.51 1017.43 1017.43 1017.35 1017.27 1017.31 1017.31 1017.23 1017.11 1017.07 1016.95 1016.91 1016.95 1016.95 1016.87 1016.91 1017.15 1017.27 1017.31 1017.31 1017.67 1017.63 1017.79 1018.55 1018.39 1018.07 1018.07
1020.15 1019.99 1019.91 1019.83 1019.71 1019.63 1019.55 1019.47 1019.39 1019.27 1019.15 1019.03 1018.87 1018.79 1018.71 1018.55 1018.47 1018.39 1018.23 1018.19 1018.19 1018.11 1018.03 1018.03 1017.99 1017.95 1017.91 1017.83 1017.79 1017.67 1017.59 1017.55 1017.47 1017.43 1017.43 1017.51 1017.43 1017.35 1017.27 1017.19 1017.15 1017.11 1017.07 1017.07 1017.07 1016.95 1016.83 1016.87 1016.99 1017.03 1017.15 1017.27 1017.23 1017.31 1017.27 1017.55 1017.83 1017.79 1018.47 1018.67 1018.07 1018.07
1020.19 1020.07 1020.03 1019.99 1019.91 1019.83 1019.71 1019.59 1019.51 1019.39 1019.27 1019.15 1019.03 1018.91 1018.87 1018.79 1018.59 1018.59 1018.51 1018.43 1018.39 1018.31 1018.23 1018.19 1018.11 1017.99 1017.87 1017.83 1017.79 1017.71 1017.63 1017.51 1017.39 1017.35 1017.31 1017.35 1017.35 1017.31 1017.27 1017.27 1017.27 1017.11 1017.11 1017.07 1017.03 1016.95 1016.75 1016.79 1016.99 1016.95 1016.95 1017.07 1017.23 1017.47 1017.43 1017.43 1017.79 1017.87 1018.31 1018.55 1018.15 1018.07
1020.15 1020.15 1020.07 1019.99 1019.95 1019.99 1019.91 1019.71 1019.55 1019.47 1019.35 1019.19 1019.11 1019.03 1018.99 1018.91 1018.75 1018.71 1018.67 1018.63 1018.55 1018.43 1018.43 1018.31 1018.23 1018.11 1017.99 1017.91 1017.83 1017.79 1017.67 1017.51 1017.35 1017.23 1017.23 1017.23 1017.39 1017.39 1017.39 1017.35 1017.27 1017.15 1017.07 1017.11 1017.03 1016.95 1016.83 1016.83 1016.83 1016.75 1016.75 1016.87 1017.19 1017.51 1017.47 1017.55 1017.55 1017.71 1018.03 1018.19 1017.99 1018.03
1020.23 1020.23 1020.19 1020.15 1020.11 1020.11 1019.99 1019.87 1019.75 1019.59 1019.43 1019.31 1019.19 1019.19 1019.19 1019.15 1019.11 1018.95 1018.83 1018.79 1018.71 1018.59 1018.51 1018.43 1018.31 1018.27 1018.15 1018.03 1017.91 1017.79 1017.67 1017.51 1017.31 1017.23 1017.23 1017.31 1017.35 1017.47 1017.43 1017.35 1017.15 1017.19 1017.19 1017.07 1016.91 1016.87 1016.99 1016.99 1016.99 1017.03 1016.99 1016.99 1017.31 1017.43 1017.51 1017.63 1017.55 1017.59 1017.67 1017.79 1017.83 1017.91
1020.39 1020.39 1020.39 1020.27 1020.27 1020.19 1020.11 1019.99 1019.87 1019.71 1019.59 1019.47 1019.35 1019.31 1019.31 1019.31 1019.31 1019.19 1019.11 1019.03 1018.91 1018.75 1018.71 1018.59 1018.51 1018.39 1018.31 1018.11 1017.99 1017.83 1017.67 1017.47 1017.35 1017.31 1017.27 1017.27 1017.31 1017.39 1017.31 1017.27 1017.19 1017.19 1017.31 1017.15 1016.95 1017.11 1016.95 1017.03 1017.07 1017.11 1017.03 1017.03 1017.31 1017.39 1017.55 1017.67 1017.47 1017.35 1017.31 1017.55 1017.75 1017.87
1020.59 1020.55 1020.51 1020.39 1020.35 1020.27 1020.19 1020.11 1019.99 1019.91 1019.79 1019.67 1019.63 1019.59 1019.55 1019.51 1019.43 1019.43 1019.39 1019.27 1019.15 1019.03 1018.95 1018.83 1018.67 1018.51 1018.39 1018.23 1018.07 1017.91 1017.71 1017.51 1017.35 1017.39 1017.39 1017.31 1017.31 1017.23 1017.19 1017.27 1017.31 1017.19 1017.19 1017.27 1017.07 1017.03 1016.87 1016.87 1017.03 1017.11 1017.07 1017.11 1017.35 1017.43 1017.63 1017.95 1017.71 1017.43 1017.39 1017.59 1017.75 1017.83
1020.63 1020.55 1020.55 1020.55 1020.51 1020.43 1020.35 1020.23 1020.15 1020.07 1019.95 1019.91 1019.87 1019.75 1019.71 1019.63 1019.71 1019.71 1019.55 1019.51 1019.35 1019.23 1019.11 1019.03 1018.87 1018.67 1018.51 1018.27 1018.15 1018.03 1017.83 1017.63 1017.51 1017.47 1017.47 1017.43 1017.39 1017.27 1017.19 1017.19 1017.35 1017.11 1016.95 1016.87 1016.79 1016.79 1016.99 1017.03 1017.03 1017.15 1017.19 1017.23 1017.35 1017.75 1017.99 1017.83 1017.39 1017.47 1017.67 1017.67 1017.63 1017.67
1020.63 1020.63 1020.63 1020.63 1020.59 1020.51 1020.43 1020.31 1020.27 1020.19 1020.11 1020.07 1020.03 1019.91 1019.87 1019.83 1019.83 1019.75 1019.71 1019.59 1019.47 1019.39 1019.27 1019.11 1018.99 1018.79 1018.67 1018.47 1018.31 1018.11 1017.95 1017.79 1017.63 1017.59 1017.55 1017.51 1017.43 1017.31 1017.19 1017.15 1017.15 1017.03 1016.91 1016.75 1016.79 1017.07 1017.11 1017.03 1017.11 1017.15 1017.23 1017.23 1017.23 1017.75 1018.03 1017.75 1017.27 1017.47 1017.63 1017.59 1017.47 1017.43
1020.71 1020.71 1020.67 1020.71 1020.71 1020.67 1020.63 1020.63 1020.63 1020.43 1020.35 1020.27 1020.11 1020.03 1019.95 1019.95 1019.87 1019.83 1019.71 1019.63 1019.51 1019.43 1019.31 1019.19 1019.03 1018.87 1018.75 1018.59 1018.47 1018.27 1018.11 1017.87 1017.75 1017.71 1017.71 1017.63 1017.51 1017.35 1017.23 1017.19 1017.19 1017.03 1017.19 1017.07 1016.83 1016.95 1016.95 1017.07 1017.19 1017.27 1017.27 1017.19 1017.11 1017.23 1017.83 1017.75 1017.47 1017.43 1017.47 1017.47 1017.39 1017.31
1020.79 1020.75 1020.75 1020.91 1020.87 1020.87 1020.91 1020.83 1020.75 1020.71 1020.71 1020.59 1020.31 1020.07 1019.99 1019.95 1019.87 1019.83 1019.75 1019.63 1019.51 1019.47 1019.35 1019.23 1019.03 1018.91 1018.83 1018.63 1018.51 1018.31 1018.19 1017.99 1017.83 1017.79 1017.83 1017.79 1017.59 1017.35 1017.11 1017.07 1017.15 1017.03 1017.11 1017.07 1016.87 1016.79 1016.91 1016.95 1017.31 1017.47 1017.27 1017.23 1017.07 1016.87 1017.07 1017.47 1017.67 1017.63 1017.59 1017.31 1017.27 1017.27
1020.83 1020.79 1020.75 1020.79 1020.87 1020.87 1020.87 1020.91 1020.95 1020.83 1020.79 1020.63 1020.47 1020.35 1020.23 1020.07 1019.99 1019.87 1019.75 1019.63 1019.51 1019.47 1019.39 1019.23 1019.11 1018.91 1018.75 1018.71 1018.59 1018.39 1018.27 1018.19 1017.99 1017.91 1017.83 1017.75 1017.59 1017.43 1017.27 1017.15 1017.07 1017.15 1016.83 1016.79 1016.99 1016.87 1016.99 1017.15 1017.55 1017.83 1017.95 1017.63 1017.19 1016.83 1016.75 1016.99 1017.31 1017.19 1017.15 1017.07 1017.11 1017.15
1020.71 1020.71 1020.71 1020.67 1020.75 1020.83 1020.75 1020.71 1020.79 1020.79 1020.75 1020.67 1020.55 1020.39 1020.31 1020.15 1020.03 1019.91 1019.75 1019.67 1019.51 1019.43 1019.39 1019.23 1019.07 1018.91 1018.79 1018.71 1018.63 1018.47 1018.35 1018.23 1018.07 1017.95 1017.91 1017.83 1017.75 1017.63 1017.47 1017.31 1017.11 1017.03 1017.15 1016.99 1016.99 1016.87 1017.11 1017.23 1017.63 1017.59 1017.71 1017.99 1018.03 1017.63 1017.07 1016.99 1017.03 1017.11 1017.03 1016.95 1016.95 1016.95
1020.63 1020.59 1020.55 1020.59 1020.55 1020.63 1020.67 1020.59 1020.59 1020.75 1020.63 1020.63 1020.59 1020.43 1020.35 1020.15 1020.03 1019.91 1019.75 1019.63 1019.51 1019.43 1019.31 1019.19 1019.03 1018.91 1018.79 1018.67 1018.63 1018.47 1018.39 1018.27 1018.15 1017.99 1018.03 1017.99 1017.91 1017.79 1017.63 1017.47 1017.19 1017.07 1017.03 1017.35 1017.31 1017.19 1017.11 1017.23 1017.43 1017.67 1018.11 1018.11 1018.11 1018.15 1018.15 1017.51 1017.27 1017.03 1016.95 1016.95 1016.95 1016.91
1020.51 1020.55 1020.51 1020.47 1020.47 1020.51 1020.59 1020.63 1020.67 1020.63 1020.71 1020.71 1020.63 1020.63 1020.59 1020.43 1020.23 1020.03 1019.87 1019.75 1019.59 1019.43 1019.31 1019.19 1019.03 1018.91 1018.79 1018.67 1018.59 1018.47 1018.39 1018.31 1018.15 1018.07 1017.99 1018.03 1017.99 1017.91 1017.75 1017.55 1017.31 1017.19 1017.15 1017.23 1017.43 1017.31 1017.23 1017.23 1017.35 1017.31 1017.71 1018.27 1018.43 1018.51 1018.15 1017.71 1017.63 1017.11 1016.91 1017.11 1017.03 1016.91
1020.43 1020.51 1020.47 1020.43 1020.39 1020.47 1020.59 1020.79 1020.91 1021.03 1021.15 1021.15 1021.15 1020.95 1020.83 1020.67 1020.43 1020.23 1020.11 1019.87 1019.63 1019.43 1019.35 1019.23 1019.07 1018.91 1018.79 1018.75 1018.59 1018.43 1018.35 1018.27 1018.19 1018.07 1017.99 1017.99 1017.95 1017.83 1017.71 1017.59 1017.35 1017.19 1017.15 1017.03 1017.15 1017.35 1017.47 1017.19 1017.27 1017.35 1017.43 1017.55 1017.71 1018.07 1018.15 1017.95 1017.91 1017.83 1016.99 1016.83 1016.87 1016.87
1020.27 1020.35 1020.35 1020.35 1020.39 1020.43 1020.63 1020.71 1020.87 1021.03 1021.11 1021.11 1021.19 1020.99 1020.75 1020.55 1020.43 1020.15 1020.03 1019.91 1019.75 1019.55 1019.39 1019.35 1019.15 1018.99 1018.83 1018.67 1018.55 1018.43 1018.31 1018.23 1018.19 1018.07 1017.91 1017.95 1017.91 1017.87 1017.75 1017.55 1017.27 1017.19 1017.03 1016.95 1017.11 1017.43 1017.43 1017.43 1017.35 1017.31 1017.39 1017.47 1017.55 1017.55 1017.59 1017.91 1018.15 1018.03 1017.87 1017.19 1016.99 1017.03
1020.15 1020.19 1020.23 1020.27 1020.39 1020.39 1020.47 1020.63 1020.79 1020.91 1020.95 1021.03 1021.11 1020.95 1020.67 1020.51 1020.27 1020.15 1020.07 1019.95 1019.83 1019.67 1019.47 1019.35 1019.23 1019.03 1018.87 1018.75 1018.55 1018.47 1018.31 1018.27 1018.19 1018.07 1017.91 1017.95 1017.91 1017.79 1017.63 1017.43 1017.27 1017.15 1017.07 1017.03 1017.11 1017.27 1017.27 1017.27 1017.51 1017.39 1017.23 1017.43 1017.51 1017.51 1017.55 1017.59 1017.67 1017.95 1018.11 1018.15 1017.59 1017.03
1020.03 1020.07 1020.11 1020.11 1020.23 1020.27 1020.31 1020.47 1020.63 1020.75 1020.91 1020.87 1020.87 1020.79 1020.67 1020.55 1020.35 1020.23 1020.19 1019.95 1019.87 1019.71 1019.55 1019.39 1019.19 1019.07 1018.91 1018.79 1018.63 1018.55 1018.43 1018.27 1018.23 1018.11 1017.95 1017.95 1017.87 1017.75 1017.67 1017.59 1017.39 1017.27 1017.23 1017.15 1017.07 1017.03 1017.11 1017.23 1017.35 1017.39 1017.35 1017.39 1017.39 1017.51 1017.47 1017.43 1017.51 1017.59 1017.99 1018.27 1017.99 1017.71
1019.87 1019.95 1019.91 1019.99 1020.03 1020.15 1020.23 1020.35 1020.55 1020.67 1020.79 1020.75 1020.71 1020.67 1020.71 1020.59 1020.47 1020.35 1020.23 1020.07 1019.91 1019.83 1019.71 1019.55 1019.35 1019.19 1019.03 1018.87 1018.67 1018.55 1018.47 1018.35 1018.19 1018.07 1017.99 1017.95 1017.87 1017.75 1017.63 1017.51 1017.43 1017.31 1017.19 1017.15 1017.03 1017.03 1017.11 1017.03 1017.03 1017.07 1017.19 1017.27 1017.47 1017.47 1017.55 1017.55 1017.55 1017.59 1017.59 1017.63 1017.99 1017.55
1019.63 1019.71 1019.71 1019.75 1019.87 1019.99 1020.07 1020.27 1020.35 1020.47 1020.55 1020.63 1020.55 1020.71 1020.79 1020.63 1020.47 1020.39 1020.27 1020.11 1019.91 1019.87 1019.79 1019.67 1019.51 1019.31 1019.11 1018.95 1018.75 1018.63 1018.51 1018.35 1018.15 1018.03 1017.95 1017.83 1017.79 1017.71 1017.59 1017.51 1017.35 1017.23 1017.19 1017.15 1017.07 1017.03 1017.03 1016.99 1016.95 1016.95 1017.03 1017.19 1017.31 1017.35 1017.39 1017.47 1017.39 1017.39 1017.43 1017.59 1017.71 1017.67
1019.55 1019.51 1019.51 1019.51 1019.67 1019.75 1019.91 1020.07 1020.15 1020.27 1020.35 1020.43 1020.43 1020.63 1020.75 1020.63 1020.47 1020.39 1020.31 1020.19 1019.91 1019.83 1019.79 1019.67 1019.55 1019.39 1019.19 1018.99 1018.87 1018.71 1018.55 1018.43 1018.23 1018.11 1017.95 1017.79 1017.67 1017.55 1017.47 1017.39 1017.35 1017.31 1017.23 1017.15 1017.03 1016.99 1017.03 1017.07 1016.99 1016.87 1016.83 1016.87 1016.91 1016.91 1016.99 1017.03 1016.99 1017.03 1017.19 1017.27 1017.43 1017.51
1019.27 1019.35 1019.31 1019.35 1019.47 1019.55 1019.75 1019.87 1019.99 1020.07 1020.15 1020.15 1020.31 1020.51 1020.55 1020.51 1020.39 1020.31 1020.23 1020.15 1019.87 1019.87 1019.79 1019.67 1019.55 1019.47 1019.27 1019.11 1018.95 1018.83 1018.67 1018.59 1018.43 1018.19 1018.03 1017.91 1017.79 1017.55 1017.43 1017.43 1017.39 1017.35 1017.31 1017.23 1017.15 1017.03 1017.03 1016.99 1016.95 1016.95 1016.79 1016.55 1016.59 1016.63 1016.67 1016.55 1016.67 1016.83 1016.83 1016.87 1017.03 1017.31
1019.07 1019.15 1019.19 1019.27 1019.31 1019.47 1019.55 1019.59 1019.71 1019.83 1019.91 1019.95 1020.15 1020.39 1020.39 1020.39 1020.23 1020.15 1020.11 1019.99 1019.91 1019.79 1019.71 1019.59 1019.55 1019.47 1019.27 1019.11 1018.99 1018.87 1018.83 1018.67 1018.51 1018.31 1018.11 1017.99 1017.87 1017.71 1017.51 1017.43 1017.39 1017.35 1017.27 1017.15 1017.07 1017.03 1016.95 1016.83 1016.75 1016.63 1016.55 1016.51 1016.39 1016.35 1016.27 1016.27 1016.39 1016.55 1016.71 1016.87 1016.99 1017.03
1019.15 1019.19 1019.15 1019.07 1019.19 1019.27 1019.35 1019.43 1019.51 1019.59 1019.67 1019.79 1020.03 1020.11 1020.15 1020.15 1020.07 1020.03 1019.95 1019.87 1019.79 1019.67 1019.55 1019.47 1019.43 1019.31 1019.11 1019.03 1018.95 1018.87 1018.75 1018.67 1018.59 1018.47 1018.27 1018.15 1017.95 1017.75 1017.63 1017.51 1017.39 1017.27 1017.19 1017.07 1017.03 1016.95 1016.87 1016.75 1016.67 1016.55 1016.43 1016.39 1016.23 1016.11 1016.03 1016.03 1016.11 1016.19 1016.23 1016.39 1016.55 1016.67
1018.95 1018.95 1019.15 1019.11 1018.95 1018.99 1019.07 1019.15 1019.31 1019.43 1019.55 1019.63 1019.79 1019.87 1019.99 1019.99 1019.95 1019.91 1019.79 1019.71 1019.59 1019.51 1019.39 1019.35 1019.23 1019.11 1018.95 1018.91 1018.91 1018.83 1018.75 1018.71 1018.59 1018.43 1018.35 1018.27 1018.07 1017.91 1017.71 1017.63 1017.51 1017.39 1017.27 1017.07 1017.03 1016.91 1016.79 1016.67 1016.59 1016.43 1016.31 1016.15 1016.15 1015.99 1015.83 1015.79 1015.79 1015.79 1015.87 1015.99 1016.15 1016.27
1018.71 1018.71 1018.67 1018.75 1018.83 1018.83 1018.87 1019.03 1019.15 1019.23 1019.35 1019.51 1019.67 1019.75 1019.91 1019.91 1019.79 1019.75 1019.71 1019.67 1019.55 1019.43 1019.27 1019.15 1019.07 1018.91 1018.91 1018.83 1018.83 1018.75 1018.75 1018.67 1018.55 1018.47 1018.39 1018.27 1018.15 1017.99 1017.83 1017.75 1017.59 1017.51 1017.43 1017.23 1017.11 1016.99 1016.79 1016.67 1016.51 1016.35 1016.19 1016.03 1015.99 1015.83 1015.67 1015.55 1015.55 1015.55 1015.59 1015.71 1015.83 1015.91
Wind_Speed
4 4 5 2 2 2 2 5 4 5 5 6 5 3 4 6 4 5 5 6 7 4 3 2 2 1 1 0 2 1 2 1 2 2 1 1 1 1 1 2 2 3 4 5 5 5 5 6 6 6 5 3 5 4 6 4 5 4 3 4 4 4
5 6 6 5 3 3 2 4 3 3 2 3 5 7 2 0 3 3 6 5 3 3 4 5 2 2 1 0 1 2 3 3 3 3 3 1 0 1 1 2 2 3 3 4 4 2 2 4 6 7 6 5 2 6 2 5 3 4 3 4 4 5
7 7 7 6 4 4 4 3 5 3 2 5 3 4 4 1 0 1 0 1 2 3 3 3 3 2 0 2 1 1 2 3 4 3 3 3 2 2 2 2 2 2 2 2 1 1 1 2 2 5 5 3 2 2 2 6 2 1 4 4 3 9
4 5 6 6 5 5 5 5 6 5 4 3 4 3 3 4 0 0 1 0 1 2 3 3 4 4 4 2 2 4 5 5 5 5 6 4 4 4 3 2 1 2 2 2 1 1 2 2 1 2 3 2 0 2 1 3 5 2 4 4 4 11
5 5 5 5 5 5 4 5 5 5 3 2 4 3 2 1 4 1 1 0 2 2 3 3 1 1 2 3 3 3 2 3 3 4 6 3 3 3 3 1 3 4 3 1 2 3 2 3 3 1 2 3 1 4 1 4 3 3 4 4 4 12
5 5 5 5 4 5 5 6 5 5 4 3 4 4 3 1 1 4 2 1 1 4 3 2 2 3 2 3 2 1 1 1 2 2 2 2 3 3 2 3 3 2 1 2 4 4 3 4 4 4 3 4 6 4 3 4 5 3 4 4 5 13
5 5 6 4 5 5 6 5 5 6 4 5 3 4 5 5 2 1 2 2 0 1 2 1 1 2 3 2 1 0 0 1 0 1 1 1 2 2 1 2 2 1 0 2 2 2 2 2 2 2 1 3 4 2 4 3 4 6 4 4 7 14
6 6 5 5 5 5 5 6 5 5 5 5 6 6 6 5 3 1 2 2 1 2 1 1 1 2 2 2 2 2 2 1 1 0 0 1 1 2 2 1 2 1 1 1 2 2 2 3 3 3 2 1 1 4 5 4 2 2 4 5 5 12
5 6 5 5 5 5 6 6 6 6 5 6 6 5 5 4 2 2 2 2 1 1 1 1 0 1 1 3 4 2 2 2 1 1 1 1 1 2 1 1 1 1 1 1 1 2 1 1 1 3 3 2 2 2 2 3 1 1 5 4 5 8
4 4 4 5 5 5 5 5 6 5 5 5 6 6 5 5 5 2 4 1 2 1 1 1 0 0 1 3 3 3 2 2 1 1 1 1 1 2 2 1 1 1 1 2 1 2 2 2 2 2 3 3 5 4 2 2 3 1 5 4 4 5
4 4 4 4 4 5 4 5 4 5 5 6 6 6 5 5 4 4 4 2 3 3 2 2 1 0 1 2 3 3 3 1 1 1 1 2 2 3 2 2 2 2 3 3 2 1 1 2 2 2 1 2 4 4 4 1 1 2 4 4 5 4
3 3 4 4 4 5 5 4 4 5 5 5 5 5 5 5 5 5 5 4 4 4 3 3 3 2 1 2 2 2 2 1 2 0 2 3 3 2 1 0 1 1 1 1 1 1 1 2 1 1 1 2 3 2 2 3 1 2 3 5 5 5
2 3 3 4 4 4 5 5 4 4 5 4 5 5 5 5 5 4 4 5 4 4 5 5 4 3 3 3 3 3 2 1 2 2 3 3 1 0 1 1 1 1 1 1 0 0 1 1 2 2 1 2 4 2 1 3 2 4 6 6 5 5
2 4 4 3 3 4 5 5 5 5 5 5 6 5 5 5 4 5 5 5 5 5 5 5 5 5 4 4 3 3 2 3 2 1 3 3 2 1 1 1 1 1 1 1 0 2 2 2 1 1 2 1 2 3 2 2 3 4 7 7 5 5
3 4 4 5 4 4 4 5 5 6 6 5 6 6 6 6 6 5 5 5 5 4 5 5 4 4 4 3 3 4 3 3 2 1 2 2 3 2 1 0 0 1 0 1 2 2 1 1 1 1 1 2 3 2 2 0 2 4 7 7 6 5
4 4 4 4 4 4 4 5 5 5 6 5 5 6 6 5 4 5 5 5 5 5 5 6 5 5 5 4 4 4 4 3 2 1 1 2 2 3 1 1 0 1 2 3 2 1 1 0 1 2 1 1 2 1 2 2 3 4 7 6 6 6
4 3 3 5 5 5 5 5 5 5 5 5 6 6 6 6 6 6 6 6 6 6 6 6 6 5 5 5 5 5 5 4 2 2 1 1 1 2 2 1 0 1 1 1 1 1 2 1 0 1 2 1 1 2 1 2 5 3 5 6 6 6
3 3 2 3 3 4 4 5 5 6 4 6 5 6 5 6 6 5 6 6 5 5 5 5 6 6 6 5 5 4 5 5 4 2 1 2 1 2 2 2 1 1 2 1 2 2 1 1 1 1 2 2 0 3 0 2 3 2 2 6 7 7
3 3 3 3 3 4 4 4 4 6 6 5 5 5 5 6 5 5 5 4 4 5 5 4 5 5 6 6 6 6 5 4 5 4 2 1 1 1 1 0 0 0 0 1 1 1 1 2 3 2 2 2 2 4 2 2 1 2 3 7 7 7
1 2 3 3 3 4 4 4 5 6 6 6 4 3 3 3 3 4 3 4 4 4 4 4 4 4 5 5 5 5 4 4 4 5 5 6 4 1 1 0 0 1 1 2 3 2 1 1 3 3 4 4 4 2 7 5 2 2 3 3 6 5
1 1 3 2 2 1 2 4 2 3 2 2 3 3 4 3 3 3 3 3 3 4 3 4 3 4 5 5 5 5 4 4 4 5 5 4 4 4 0 1 1 1 2 2 1 1 1 0 2 2 1 3 5 4 3 6 7 5 6 6 5 6
2 1 2 1 1 1 1 1 2 3 2 2 3 4 3 5 4 3 3 3 3 3 3 3 3 3 4 4 5 5 3 3 4 4 3 3 3 3 3 1 1 0 1 2 2 0 0 1 2 1 2 5 3 3 3 3 5 5 5 4 5 5
3 3 1 1 1 0 1 1 0 2 1 1 1 1 2 3 3 4 3 3 3 3 3 4 3 3 3 3 3 4 3 2 4 3 5 5 4 5 4 3 2 0 0 1 2 1 1 2 1 0 2 1 3 2 2 1 1 3 3 3 4 5
5 4 3 1 1 1 2 1 1 2 2 1 0 2 4 3 5 5 5 5 5 4 4 4 4 4 3 3 2 3 2 2 3 3 3 3 4 4 4 4 3 1 1 1 1 2 1 3 3 0 1 2 2 2 2 3 2 2 5 5 4 5
6 5 4 3 1 0 1 3 4 4 3 2 2 4 4 4 4 3 3 5 6 5 5 5 5 4 3 4 3 2 1 1 3 2 2 3 3 3 3 3 2 0 2 1 2 2 2 3 5 4 1 2 1 0 3 2 1 3 2 4 5 5
5 4 4 4 3 2 1 0 2 3 4 2 3 4 3 3 4 4 4 4 5 5 5 5 5 5 4 3 3 1 0 2 1 2 1 2 2 3 4 4 3 2 1 3 2 2 2 3 3 4 5 2 0 0 1 2 1 2 2 1 2 4
6 5 4 4 3 2 1 0 0 1 1 2 2 3 3 4 4 5 3 5 5 6 5 5 5 4 4 4 3 1 1 1 1 0 1 1 3 3 4 3 4 1 2 1 1 2 3 2 1 3 4 4 5 4 2 1 2 1 2 1 1 2
6 6 4 4 4 4 3 1 0 0 0 2 3 3 3 4 3 3 3 4 5 5 6 4 4 4 4 3 3 2 1 0 1 1 0 2 2 3 4 4 3 2 1 1 2 3 3 2 2 2 3 4 4 4 4 3 3 2 1 1 1 1
6 5 5 5 5 4 4 3 3 0 1 2 3 4 3 3 3 3 4 4 4 5 5 5 5 5 5 5 4 2 2 0 1 1 1 1 2 2 3 3 4 4 3 2 2 2 2 3 3 5 1 2 2 3 3 4 3 3 3 1 5 3
5 6 6 5 5 5 4 3 3 2 1 3 1 3 2 4 3 3 3 4 3 5 5 5 6 5 5 5 5 4 2 2 2 2 1 2 2 2 3 3 3 3 3 3 2 2 3 4 4 3 3 2 1 1 1 3 4 5 5 5 5 3
7 6 6 7 6 6 4 4 4 3 3 2 2 2 2 2 3 3 3 3 3 4 4 5 5 5 4 4 5 4 4 4 3 2 3 3 2 2 2 2 2 3 3 3 4 2 3 3 3 4 4 4 5 5 5 4 4 5 6 4 5 7
5 7 7 6 6 5 4 4 4 4 3 3 3 2 3 2 3 3 3 4 2 3 4 4 4 4 5 5 4 5 4 4 5 4 4 3 3 2 2 2 2 2 3 3 3 3 2 2 4 4 4 4 5 5 5 6 5 4 5 6 6 5
7 6 7 6 7 6 5 5 5 4 4 3 2 3 3 3 4 3 3 3 2 3 3 4 4 4 4 5 4 5 5 6 5 4 3 3 4 4 3 2 1 2 3 3 4 3 4 3 3 4 5 5 5 5 6 5 4 4 4 4 6 6
7 6 5 6 7 6 6 5 6 5 4 3 1 3 4 4 4 4 3 3 1 1 2 3 3 3 4 4 4 4 3 4 3 3 4 4 4 4 4 3 2 2 3 3 3 3 4 4 3 4 4 5 5 5 6 5 5 5 5 5 4 4
5 4 5 7 6 6 6 5 5 5 4 3 1 2 4 5 4 4 3 3 0 1 1 3 3 4 4 4 4 4 5 4 4 4 4 5 6 5 2 2 2 2 3 3 3 4 4 4 5 4 3 4 5 6 6 5 5 6 5 6 5 4
4 3 4 5 6 7 7 5 5 5 5 3 1 2 2 2 4 4 3 2 1 2 3 2 3 2 4 3 4 4 3 3 3 4 4 4 5 6 4 1 2 3 5 4 4 5 5 4 5 5 5 4 4 6 5 5 5 6 6 6 6 5
5 3 4 5 7 6 6 5 5 6 5 3 3 3 3 3 4 4 3 2 3 2 3 2 3 3 4 5 4 2 3 3 4 3 4 4 4 5 4 3 3 4 5 6 5 5 5 5 5 5 5 5 5 5 5 4 4 5 5 5 6 6
Wind_Direction
350 339 335 305 271 285 273 277 283 300 299 322 322 336 4 19 27 8 4 1 11 340 330 335 3 329 269 229 199 200 220 291 322 330 87 141 135 351 337 333 20 24 16 15 9 26 15 351 331 320 316 339 331 32 4 314 129 131 139 148 149 171
5 358 357 354 336 316 332 327 299 278 313 292 311 318 41 17 50 17 6 357 357 344 343 320 328 340 115 339 343 336 312 312 301 311 306 317 248 291 292 325 351 8 11 4 8 37 13 341 329 315 301 305 339 75 254 290 126 143 142 141 154 186
1 2 7 3 356 355 354 1 22 6 285 266 285 301 333 31 26 92 326 0 343 339 317 325 310 315 345 80 34 294 293 303 293 295 291 293 309 293 295 318 350 350 348 359 57 0 346 341 329 318 299 317 42 52 349 315 351 181 146 156 160 181
2 2 12 359 12 6 1 7 7 13 351 290 295 296 337 324 106 251 218 150 310 314 312 295 338 21 51 70 43 7 348 359 353 336 326 325 326 320 320 304 295 293 2 29 346 320 316 322 323 299 284 273 102 91 327 330 290 204 147 160 168 179
357 8 12 3 17 1 8 9 355 356 19 338 284 298 313 299 307 219 209 242 238 271 304 311 331 16 55 72 76 55 40 14 16 14 11 2 328 324 9 27 34 37 37 10 346 332 348 343 337 314 248 273 95 87 322 274 299 248 163 161 176 176
4 3 12 7 357 360 17 4 350 336 6 7 337 307 308 298 193 302 327 299 329 354 326 319 354 352 35 58 61 74 72 40 29 11 9 5 345 331 353 45 54 61 38 53 56 42 42 40 19 10 40 59 35 35 351 306 292 264 176 164 179 178
11 2 12 4 7 13 8 351 333 333 4 340 26 349 319 310 333 263 282 263 219 272 292 313 342 341 1 31 53 24 97 103 85 348 329 33 323 297 331 72 92 146 210 75 87 91 121 122 112 106 103 95 110 140 162 188 279 272 187 172 178 180
5 17 4 4 11 12 2 359 344 347 355 338 9 355 327 311 304 266 273 266 223 154 120 99 316 340 328 356 337 325 334 38 96 143 286 325 307 303 337 80 158 196 114 107 135 159 166 156 153 144 125 112 145 148 148 141 151 339 266 173 181 183
7 11 6 356 14 360 3 0 2 2 344 357 358 349 328 325 285 275 280 262 292 66 64 94 248 282 343 335 317 319 342 328 11 4 345 359 332 296 277 216 180 134 141 155 197 193 150 141 104 62 85 104 97 86 103 108 117 195 266 196 181 184
4 5 354 12 3 8 0 2 353 358 334 5 354 341 352 349 315 329 307 338 356 96 77 120 85 296 340 311 310 316 317 284 282 349 17 322 267 241 221 202 131 127 147 184 214 221 162 175 126 145 160 159 132 126 122 115 122 141 249 210 185 188
356 350 2 11 1 2 358 1 348 342 358 3 345 350 356 347 332 8 351 20 1 354 42 40 67 304 286 297 307 308 300 222 232 222 211 264 247 239 237 193 152 182 195 191 198 240 159 142 145 153 159 133 130 126 127 163 128 124 236 228 180 190
329 340 1 349 353 358 354 343 346 350 355 348 354 353 344 349 12 12 27 31 14 4 16 4 11 348 337 339 324 312 295 211 266 222 243 238 241 264 251 246 174 208 213 158 171 203 171 131 94 59 8 85 87 91 123 119 60 130 203 243 185 192
310 339 347 326 328 331 347 343 346 346 345 352 355 351 347 337 1 11 24 29 27 26 21 8 354 353 349 351 340 335 345 298 250 193 209 221 221 318 353 0 325 339 21 89 62 282 186 131 138 129 132 79 90 81 41 111 123 172 209 211 198 190
325 350 339 341 341 349 344 339 343 347 353 358 357 358 344 349 7 41 34 25 23 27 24 15 16 359 347 345 336 337 339 339 308 207 172 155 154 135 58 341 311 5 52 28 237 229 198 149 180 148 107 110 103 135 167 183 170 171 194 201 189 185
347 345 6 5 13 354 358 353 345 348 350 357 360 8 0 11 5 24 36 23 21 20 19 12 10 12 358 2 360 349 350 324 317 16 130 151 135 115 106 348 352 113 306 257 240 228 29 20 340 37 84 72 80 109 120 279 239 221 195 189 180 188
354 359 356 11 5 3 5 358 352 349 348 358 10 20 28 23 14 16 23 16 7 12 17 6 4 5 357 347 355 351 336 320 332 55 91 135 120 133 152 122 59 212 219 244 257 31 73 227 352 342 43 79 95 107 159 176 255 235 178 175 188 180
5 2 354 17 13 1 3 359 351 349 345 6 20 17 17 15 18 16 10 18 10 8 11 6 2 3 1 350 343 340 329 328 322 67 126 143 126 163 141 139 184 274 286 275 266 196 227 189 190 263 329 300 122 149 115 155 288 279 174 177 183 189
48 34 15 23 15 359 355 352 351 348 359 23 24 32 22 28 22 11 14 16 13 14 13 8 4 357 359 352 348 334 332 340 341 17 101 140 168 165 151 154 168 215 218 268 244 250 319 5 335 355 354 314 267 95 311 144 221 311 262 191 184 190
63 46 21 10 5 360 355 355 346 4 358 21 22 32 30 30 20 15 14 4 10 13 5 7 5 0 0 349 351 351 356 1 10 15 33 65 146 180 138 189 149 267 13 240 286 341 2 2 349 344 318 286 285 129 157 246 194 232 263 203 188 185
74 107 68 7 13 1 6 357 353 348 1 352 5 25 24 30 7 15 356 2 2 4 2 356 5 355 0 349 352 343 340 13 28 32 27 16 4 13 165 179 41 300 98 231 264 287 49 27 333 311 285 273 262 223 157 181 195 246 260 219 188 184
194 84 90 37 349 25 358 332 356 349 309 293 337 7 10 354 5 344 337 347 354 349 348 350 358 359 354 350 350 333 344 11 26 35 32 21 8 8 239 192 206 255 241 239 323 38 5 63 308 302 290 271 271 249 201 167 180 201 216 223 202 192
192 155 126 128 219 292 217 216 233 265 283 290 353 16 339 350 342 337 329 337 336 333 325 338 343 347 344 2 348 342 346 1 37 29 28 16 14 17 10 344 235 226 327 315 300 354 73 132 245 232 343 335 320 291 231 180 170 199 202 203 204 199
184 162 186 155 132 271 277 306 169 300 309 283 286 273 295 302 324 342 317 312 326 322 317 324 330 331 339 348 341 337 343 341 45 37 30 16 8 7 354 346 283 242 196 308 292 261 166 199 285 56 163 80 310 358 325 341 174 187 209 202 192 202
183 186 175 209 166 214 240 354 357 70 13 106 14 340 343 335 345 351 345 334 325 321 313 311 318 324 323 326 348 345 336 2 44 48 62 31 6 357 344 338 335 227 161 257 249 277 197 181 207 160 290 175 213 122 341 300 296 276 176 192 194 203
175 191 181 184 177 180 29 13 356 3 31 0 356 7 359 335 326 321 338 343 320 321 320 320 315 311 308 317 336 339 34 41 51 28 49 41 9 336 316 305 294 23 195 191 246 247 229 204 210 216 149 108 37 26 220 245 12 288 118 156 208 199
175 186 180 192 183 138 149 100 19 31 353 350 327 329 317 300 317 327 309 292 316 326 326 325 317 311 307 303 323 328 166 98 72 20 44 19 351 350 346 335 303 279 215 217 198 216 247 221 224 223 217 233 215 179 278 297 64 261 316 227 181 194
176 188 184 184 177 137 143 105 179 232 207 223 246 274 247 266 262 289 316 329 324 325 329 330 323 325 316 321 315 288 176 122 127 78 13 39 2 348 330 322 308 333 276 219 167 232 243 197 188 239 234 232 256 264 244 111 252 358 333 318 315 199
185 181 183 172 173 166 179 187 259 293 140 224 205 254 270 273 274 280 339 333 335 339 334 333 328 337 344 338 325 289 212 155 79 333 11 22 341 325 340 337 332 316 284 198 194 228 257 188 200 266 192 209 226 244 235 251 211 163 187 296 309 323
183 175 187 177 179 187 177 182 189 163 358 268 217 247 283 303 311 332 351 341 353 343 343 335 349 346 348 355 2 345 294 143 29 329 347 342 347 328 340 346 344 346 354 298 216 230 231 233 211 240 204 277 220 240 235 219 233 201 201 188 272 260
185 180 182 183 181 193 198 168 158 214 199 292 291 287 340 312 310 335 353 338 342 349 343 336 342 347 343 348 355 354 324 302 312 301 319 322 310 332 333 346 334 326 339 345 291 244 226 234 226 231 197 193 221 282 270 242 220 224 227 203 242 266
188 185 186 185 175 191 195 168 172 197 207 258 270 263 313 318 313 342 340 322 355 335 334 333 334 339 337 339 343 350 343 324 316 318 321 310 300 283 296 316 319 338 350 346 329 290 253 250 244 248 227 205 219 212 222 222 216 215 217 215 222 247
191 191 192 190 184 194 186 186 176 182 204 231 229 193 219 242 270 279 289 302 320 356 344 329 335 334 335 335 337 338 335 339 342 337 315 293 290 284 293 323 332 339 334 324 326 324 276 247 250 253 251 224 222 222 227 230 231 212 210 223 221 243
204 200 195 189 188 194 189 188 182 186 210 222 220 182 208 228 252 254 271 286 351 6 330 341 325 337 324 324 323 332 340 338 330 330 327 314 294 298 295 305 307 329 325 330 316 313 314 287 254 240 250 244 233 228 230 225 223 227 228 221 206 221
213 200 197 189 194 193 199 194 188 185 202 218 220 187 215 214 242 241 231 253 289 319 311 289 303 308 295 305 317 316 323 316 311 319 349 345 330 301 293 291 303 338 316 303 307 306 299 296 287 266 257 264 246 237 238 227 225 220 223 208 222 216
223 223 198 197 194 195 204 199 195 191 194 210 166 196 217 215 228 241 251 239 271 244 272 288 294 291 305 313 313 328 335 340 337 346 360 358 345 341 309 312 298 293 308 298 303 306 302 303 301 297 283 253 260 253 247 238 225 228 215 217 214 206
184 217 235 228 205 196 202 196 189 189 201 202 164 176 227 236 237 221 236 206 207 239 252 267 279 293 312 311 325 331 342 341 354 9 12 3 353 348 344 286 306 325 319 313 312 313 304 304 298 292 287 282 269 263 253 241 228 230 223 215 217 215
196 208 207 212 219 206 196 184 196 192 195 184 159 174 204 227 230 232 233 206 197 230 278 298 304 322 322 336 339 351 5 358 8 9 15 8 3 357 352 340 0 339 337 329 321 309 310 310 298 293 284 284 277 275 270 257 243 233 228 218 217 219